timestamp,wind_dir_avg,wind_spd_avg,wind_spd_max_dir,wind_spd_gust,battery_voltage,lat,long
2023-02-24 00:04:00+00:00,335.0,7.18,316.0,8.64,12.33,47.59359,-54.27349
2023-02-24 00:14:00+00:00,310.0,7.74,312.0,10.11,12.25,47.59359,-54.27349
2023-02-24 00:24:00+00:00,303.0,7.57,303.0,10.01,12.25,47.59359,-54.27349
2023-02-24 00:34:00+00:00,312.0,8.93,305.0,10.94,12.25,47.59359,-54.27349
2023-02-24 00:44:00+00:00,317.0,9.57,319.0,11.11,12.25,47.59359,-54.27349
2023-02-24 00:54:00+00:00,311.0,8.5,304.0,10.5,12.25,47.59359,-54.27349
2023-02-24 01:04:00+00:00,318.0,8.93,301.0,11.27,12.25,47.59359,-54.27349
2023-02-24 01:14:00+00:00,319.0,8.27,325.0,9.05,12.17,47.59359,-54.27349
2023-02-24 01:24:00+00:00,315.0,0.01,325.0,0.0,12.17,47.59359,-54.27349
2023-02-24 01:34:00+00:00,301.0,6.38,314.0,6.96,12.17,47.59359,-54.27349
2023-02-24 01:44:00+00:00,314.0,8.67,307.0,10.04,12.17,47.59359,-54.27349
2023-02-24 01:54:00+00:00,315.0,8.95,320.0,10.48,12.17,47.59359,-54.27349
2023-02-24 02:04:00+00:00,323.0,10.19,316.0,12.22,12.17,47.59359,-54.27349
2023-02-24 02:14:00+00:00,320.0,9.94,323.0,12.21,12.17,47.59359,-54.27349
2023-02-24 02:24:00+00:00,318.0,11.01,309.0,14.65,12.17,47.59359,-54.27349
2023-02-24 02:34:00+00:00,317.0,9.69,301.0,11.87,12.17,47.59359,-54.27349
2023-02-24 02:44:00+00:00,320.0,9.16,326.0,10.6,12.17,47.59359,-54.27349
2023-02-24 02:54:00+00:00,317.0,11.43,311.0,16.67,12.17,47.59359,-54.27349
2023-02-24 03:04:00+00:00,324.0,9.96,310.0,13.72,12.17,47.59359,-54.27349
2023-02-24 03:14:00+00:00,328.0,10.48,328.0,13.21,12.17,47.59359,-54.27349
2023-02-24 03:24:00+00:00,321.0,8.56,317.0,9.43,12.17,47.59359,-54.27349
2023-02-24 03:34:00+00:00,318.0,7.97,309.0,8.81,12.17,47.59359,-54.27349
2023-02-24 03:44:00+00:00,327.0,4.36,323.0,5.52,12.17,47.59359,-54.27349
2023-02-24 03:54:00+00:00,315.0,0.01,344.0,0.0,12.17,47.59359,-54.27349
2023-02-24 04:04:00+00:00,315.0,0.01,321.0,0.0,12.17,47.59359,-54.27349
2023-02-24 04:14:00+00:00,324.0,9.64,324.0,10.03,12.09,47.59359,-54.27349
2023-02-24 04:24:00+00:00,330.0,9.1,326.0,10.04,12.09,47.59359,-54.27349
2023-02-24 04:34:00+00:00,311.0,7.1,311.0,7.12,12.09,47.59359,-54.27349
2023-02-24 04:44:00+00:00,315.0,0.01,310.0,0.0,12.09,47.59359,-54.27349
2023-02-24 04:54:00+00:00,315.0,0.01,311.0,0.0,12.09,47.59359,-54.27349
2023-02-24 05:04:00+00:00,315.0,0.01,318.0,0.0,12.09,47.59359,-54.27349
2023-02-24 05:14:00+00:00,315.0,0.01,296.0,0.0,12.09,47.59359,-54.27349
2023-02-24 05:24:00+00:00,315.0,0.01,312.0,0.0,12.09,47.59359,-54.27349
2023-02-24 05:34:00+00:00,315.0,8.02,315.0,8.15,12.09,47.59359,-54.27349
2023-02-24 05:44:00+00:00,303.0,7.13,304.0,7.15,12.09,47.59359,-54.27349
2023-02-24 05:54:00+00:00,315.0,0.01,345.0,0.0,12.09,47.59359,-54.27349
2023-02-24 06:04:00+00:00,328.0,9.68,324.0,9.99,12.09,47.59359,-54.27349
2023-02-24 06:14:01+00:00,305.0,7.79,306.0,8.3,12.01,47.59359,-54.27349
2023-02-24 06:24:01+00:00,324.0,9.68,325.0,10.05,12.01,47.59359,-54.27349
2023-02-24 06:34:01+00:00,315.0,0.01,338.0,0.0,12.01,47.59359,-54.27349
2023-02-24 06:44:01+00:00,315.0,0.01,319.0,0.0,12.01,47.59359,-54.27349
2023-02-24 06:54:01+00:00,348.0,5.84,348.0,5.86,12.01,47.59359,-54.27349
2023-02-24 07:04:01+00:00,309.0,8.35,309.0,8.37,12.01,47.59359,-54.27349
2023-02-24 07:14:00+00:00,315.0,0.01,294.0,0.0,12.01,47.59359,-54.27349
2023-02-24 07:24:00+00:00,316.0,7.65,316.0,7.67,12.01,47.59359,-54.27349
2023-02-24 07:34:00+00:00,315.0,0.01,321.0,0.0,12.01,47.59359,-54.27349
2023-02-24 07:44:00+00:00,315.0,0.01,318.0,0.0,12.01,47.59359,-54.27349
2023-02-24 07:54:00+00:00,286.0,4.22,278.0,5.18,12.01,47.59359,-54.27349
2023-02-24 08:04:00+00:00,290.0,5.33,291.0,5.34,12.01,47.59359,-54.27349
2023-02-24 08:14:00+00:00,298.0,5.63,299.0,5.65,11.93,47.59359,-54.27349
2023-02-24 08:24:00+00:00,315.0,0.01,342.0,0.0,11.93,47.59359,-54.27349
2023-02-24 08:34:00+00:00,315.0,0.01,288.0,0.0,11.93,47.59359,-54.27349
2023-02-24 08:44:00+00:00,315.0,0.01,313.0,0.0,11.93,47.59359,-54.27349
2023-02-24 08:54:00+00:00,315.0,0.01,306.0,0.0,11.93,47.59359,-54.27349
2023-02-24 09:04:00+00:00,315.0,0.01,311.0,0.0,11.93,47.59359,-54.27349
2023-02-24 09:14:01+00:00,344.0,3.84,319.0,4.5,11.93,47.59359,-54.27349
2023-02-24 09:24:01+00:00,356.0,4.19,355.0,4.56,11.93,47.59359,-54.27349
2023-02-24 09:34:01+00:00,312.0,6.7,314.0,7.33,11.93,47.59359,-54.27349
2023-02-24 09:44:01+00:00,297.0,5.77,298.0,5.79,11.93,47.59359,-54.27349
2023-02-24 09:54:01+00:00,315.0,0.01,313.0,0.0,11.93,47.59359,-54.27349
2023-02-24 10:04:01+00:00,315.0,0.01,325.0,0.0,11.93,47.59359,-54.27349
2023-02-24 10:14:00+00:00,323.0,4.39,320.0,4.79,11.93,47.59359,-54.27349
2023-02-24 10:24:00+00:00,315.0,0.01,281.0,0.0,11.93,47.59359,-54.27349
2023-02-24 10:34:00+00:00,286.0,5.23,286.0,5.35,11.93,47.59359,-54.27349
2023-02-24 10:44:00+00:00,295.0,5.8,296.0,5.82,11.93,47.59359,-54.27349
2023-02-24 10:54:00+00:00,315.0,0.01,293.0,0.0,11.93,47.59359,-54.27349
2023-02-24 11:04:00+00:00,315.0,0.01,308.0,0.0,11.93,47.59359,-54.27349
2023-02-24 11:14:00+00:00,315.0,0.01,286.0,0.0,12.17,47.59359,-54.27349
2023-02-24 11:24:00+00:00,315.0,0.01,295.0,0.0,12.17,47.59359,-54.27349
2023-02-24 11:34:00+00:00,293.0,5.46,295.0,5.6,12.17,47.59359,-54.27349
2023-02-24 11:44:00+00:00,315.0,0.01,306.0,0.0,12.17,47.59359,-54.27349
2023-02-24 11:54:00+00:00,313.0,5.64,314.0,5.66,12.17,47.59359,-54.27349
2023-02-24 12:04:00+00:00,315.0,0.01,339.0,0.0,12.17,47.59359,-54.27349
2023-02-24 12:14:00+00:00,315.0,0.01,308.0,0.0,13.44,47.59359,-54.27349
2023-02-24 12:24:00+00:00,315.0,0.01,313.0,0.0,13.44,47.59359,-54.27349
2023-02-24 12:34:00+00:00,343.0,4.93,343.0,4.95,13.44,47.59359,-54.27349
2023-02-24 12:44:00+00:00,299.0,5.04,300.0,5.87,13.44,47.59359,-54.27349
2023-02-24 12:54:00+00:00,310.0,6.97,313.0,7.8,13.44,47.59359,-54.27349
2023-02-24 13:04:00+00:00,309.0,7.07,313.0,7.9,13.44,47.59359,-54.27349
2023-02-24 14:14:00+00:00,315.0,0.01,311.0,0.0,14.48,47.59359,-54.27349
2023-02-24 14:24:00+00:00,314.0,4.91,296.0,7.81,14.48,47.59359,-54.27349
2023-02-24 14:34:00+00:00,318.0,4.27,302.0,5.87,14.48,47.59359,-54.27349
2023-02-24 14:44:00+00:00,312.0,6.52,312.0,7.44,14.48,47.59359,-54.27349
2023-02-24 14:54:00+00:00,319.0,6.22,313.0,7.67,14.48,47.59359,-54.27349
2023-02-24 15:04:00+00:00,318.0,6.82,311.0,8.2,14.48,47.59359,-54.27349
2023-02-24 15:14:00+00:00,307.0,4.73,307.0,4.75,14.48,47.59359,-54.27349
2023-02-24 15:24:00+00:00,301.0,7.45,301.0,7.47,14.48,47.59359,-54.27349
2023-02-24 15:34:00+00:00,308.0,3.68,308.0,5.86,14.48,47.59359,-54.27349
2023-02-24 15:44:00+00:00,296.0,5.35,290.0,6.12,14.48,47.59359,-54.27349
2023-02-24 15:54:00+00:00,317.0,5.13,318.0,6.69,14.48,47.59359,-54.27349
2023-02-24 16:04:00+00:00,317.0,5.95,319.0,7.25,14.48,47.59359,-54.27349
2023-02-24 16:14:00+00:00,322.0,6.15,315.0,8.02,14.48,47.59359,-54.27349
2023-02-24 16:24:00+00:00,318.0,6.71,307.0,8.28,14.48,47.59359,-54.27349
2023-02-24 16:34:00+00:00,289.0,4.06,282.0,5.53,14.48,47.59359,-54.27349
2023-02-24 16:44:00+00:00,327.0,5.69,314.0,7.89,14.48,47.59359,-54.27349
2023-02-24 16:54:00+00:00,327.0,6.63,317.0,8.53,14.48,47.59359,-54.27349
2023-02-24 17:04:00+00:00,326.0,5.66,319.0,6.87,14.48,47.59359,-54.27349
2023-02-24 17:14:01+00:00,309.0,4.57,300.0,6.07,14.56,47.59359,-54.27349
2023-02-24 17:24:01+00:00,323.0,5.06,327.0,6.21,14.56,47.59359,-54.27349
2023-02-24 17:34:01+00:00,328.0,5.12,331.0,6.68,14.56,47.59359,-54.27349
2023-02-24 17:44:01+00:00,322.0,5.11,333.0,6.29,14.56,47.59359,-54.27349
2023-02-24 17:54:01+00:00,318.0,3.87,314.0,4.68,14.56,47.59359,-54.27349
2023-02-24 18:04:01+00:00,309.0,4.69,314.0,5.6,14.56,47.59359,-54.27349
2023-02-24 18:14:01+00:00,354.0,5.97,346.0,7.88,14.48,47.59359,-54.27349
2023-02-24 18:24:01+00:00,356.0,2.29,2.0,3.73,14.48,47.59359,-54.27349
2023-02-24 18:34:01+00:00,304.0,3.94,300.0,4.87,14.48,47.59359,-54.27349
2023-02-24 18:44:01+00:00,0.0,5.22,354.0,6.65,14.48,47.59359,-54.27349
2023-02-24 18:54:01+00:00,5.0,3.53,3.0,4.64,14.48,47.59359,-54.27349
2023-02-24 19:04:01+00:00,349.0,4.26,339.0,6.03,14.48,47.59359,-54.27349
2023-02-24 19:14:00+00:00,347.0,4.58,348.0,5.74,14.48,47.59359,-54.27349
2023-02-24 19:24:00+00:00,327.0,4.08,328.0,5.24,14.48,47.59359,-54.27349
2023-02-24 19:34:00+00:00,5.0,4.94,7.0,6.26,14.48,47.59359,-54.27349
2023-02-24 19:44:00+00:00,1.0,4.54,0.0,6.35,14.48,47.59359,-54.27349
2023-02-24 19:54:00+00:00,309.0,3.31,309.0,3.91,14.48,47.59359,-54.27349
2023-02-24 20:04:00+00:00,6.0,3.71,14.0,4.75,14.48,47.59359,-54.27349
2023-02-24 20:14:00+00:00,337.0,4.24,338.0,6.24,13.6,47.59359,-54.27349
2023-02-24 20:24:00+00:00,341.0,4.71,346.0,6.39,13.6,47.59359,-54.27349
2023-02-24 20:34:00+00:00,0.0,4.53,352.0,6.25,13.6,47.59359,-54.27349
2023-02-24 20:44:00+00:00,351.0,5.97,348.0,7.39,13.6,47.59359,-54.27349
2023-02-24 20:54:00+00:00,346.0,6.53,344.0,8.3,13.6,47.59359,-54.27349
2023-02-24 21:04:00+00:00,336.0,6.93,343.0,7.84,13.6,47.59359,-54.27349
2023-02-24 21:14:00+00:00,1.0,5.55,354.0,6.92,13.29,47.59359,-54.27349
2023-02-24 21:24:00+00:00,345.0,4.93,336.0,6.9,13.29,47.59359,-54.27349
2023-02-24 21:34:00+00:00,352.0,5.09,347.0,6.12,13.29,47.59359,-54.27349
2023-02-24 21:44:00+00:00,337.0,6.12,336.0,6.96,13.29,47.59359,-54.27349
2023-02-24 21:54:00+00:00,338.0,6.1,328.0,7.29,13.29,47.59359,-54.27349
2023-02-24 22:04:00+00:00,348.0,6.09,351.0,7.1,13.29,47.59359,-54.27349
2023-02-24 22:14:00+00:00,10.0,6.67,10.0,8.19,12.57,47.59359,-54.27349
2023-02-24 22:24:00+00:00,353.0,7.6,352.0,9.09,12.57,47.59359,-54.27349
2023-02-24 22:34:00+00:00,355.0,6.91,2.0,8.15,12.57,47.59359,-54.27349
2023-02-24 22:44:00+00:00,359.0,6.77,5.0,7.97,12.57,47.59359,-54.27349
2023-02-24 22:54:00+00:00,352.0,6.84,344.0,8.49,12.57,47.59359,-54.27349
2023-02-24 23:04:00+00:00,353.0,7.29,358.0,8.64,12.57,47.59359,-54.27349
2023-02-24 23:14:00+00:00,2.0,7.31,5.0,8.64,12.25,47.59359,-54.27349
2023-02-24 23:24:00+00:00,354.0,8.11,353.0,9.47,12.25,47.59359,-54.27349
2023-02-24 23:34:00+00:00,8.0,7.74,9.0,9.14,12.25,47.59359,-54.27349
2023-02-24 23:44:00+00:00,3.0,7.23,4.0,8.28,12.25,47.59359,-54.27349
2023-02-24 23:54:00+00:00,0.0,7.98,0.0,9.76,12.25,47.59359,-54.27349
